Flag for U.S.A. Weather past 2 weeks in Amarillo, Texas, U.S.A.

Now
53 °F

Sunny.


Feels Like: 51 °F
Forecast: 52 / 79 °F
Wind: 7 mph from Southeast

Location: Amarillo International Airport

Current Time: May 26, 2015 at 9:09:20 AM

Latest Report: May 26, 2015 at 7:53 AM


Visibility: 10 mi

Pressure: 29.88 "Hg

Humidity: 89%

Dew point: 50 °F

Location of AmarilloLocation

Historic Weather in Amarillo — Graph

°F

Amarillo temperature yesterday

Maximum temperature yesterday: 71 °F (at 4:53 PM)
Minimum temperature yesterday: 52 °F (at 5:53 AM)
Average temperature yesterday: 60 °F

Past Weeks' High & Low Weather Summary

 TemperatureHumidityPressure
High80 °F (May 14, 2:53 PM)100% (May 13, 9:53 AM)30.29 "Hg (May 13, 9:53 AM)
Low42 °F (May 11, 7:53 AM)28% (May 17, 4:53 PM)29.59 "Hg (May 16, 3:53 PM)
Average59 °F74%29.95 "Hg
* Reported May 11 7:53 AM — May 26 7:53 AM, Amarillo, Weather by CustomWeather, © 2015

Note: Actual official high and low records may vary slightly from our data, if they occured in-between our weather recording intervals... More about our weather records

Advertising

Amarillo weather history for previous 24 hours

 ConditionsComfort  
Time TempWeatherWind HumidityBarometerVisibility
7:53 AM
Tue, May 26
53 °FSunny.7 mph89%29.88 "Hg10 mi
6:53 AM51 °FClear.10 mph89%29.85 "Hg10 mi
5:53 AM51 °FClear.14 mph89%29.84 "Hg10 mi
4:53 AM50 °FClear.8 mph93%29.82 "Hg10 mi
3:53 AM51 °FClear.8 mph89%29.81 "Hg10 mi
2:53 AM53 °FClear.13 mph86%29.80 "Hg10 mi
1:53 AM52 °FClear.9 mph89%29.81 "Hg10 mi
12:53 AM54 °FClear.9 mph86%29.82 "Hg10 mi
11:53 PM
Mon, May 25
55 °FClear.9 mph83%29.82 "Hg10 mi
10:53 PM55 °FClear.9 mph83%29.82 "Hg10 mi
9:53 PM57 °FClear.14 mph81%29.81 "Hg10 mi
8:53 PM60 °FSunny.13 mph69%29.79 "Hg10 mi
7:53 PM64 °FSunny.16 mph61%29.77 "Hg10 mi
6:53 PM68 °FSunny.16 mph51%29.75 "Hg10 mi
5:53 PM69 °FSunny.14 mph51%29.76 "Hg10 mi
4:53 PM71 °FSunny.14 mph47%29.78 "Hg10 mi
3:53 PM67 °FSunny.12 mph55%29.80 "Hg10 mi
2:53 PM67 °FSunny.10 mph53%29.81 "Hg10 mi
1:53 PM65 °FSunny.15 mph54%29.82 "Hg10 mi
12:53 PM64 °FSunny.21 mph54%29.82 "Hg10 mi
11:53 AM64 °FSunny.21 mph54%29.81 "Hg10 mi
10:53 AM62 °FSunny.17 mph58%29.80 "Hg10 mi
9:53 AM62 °FSunny.8 mph62%29.76 "Hg10 mi
Weather by CustomWeather, © 2015

See weather overviewHow to use our weather pages